Location: ?????
(44.4284°N, 135.2222°E)
Time: 01:06:34
(UTC+00:00)

Cosmos 2219 Rocket - Pass Details

Date: 19 May 2025
Orbit: 827 x 844 km, 71.0° (Epoch: 13 June)

Event Time Altitude Azimuth Distance (km) Brightness Sun altitude
Rises 13:53:18 0° 343° (NNW) 3,398 6.8 -24.1°
Reaches altitude 10° 13:56:33 10° 2° (N) 2,456 5.6 -24.3°
Maximum altitude 14:00:24 19° 46° (NE) 1,915 4.3 -24.4°
Drops below altitude 10° 14:04:15 10° 89° (E) 2,440 4.5 -24.6°
Enters shadow 14:04:21 10° 90° (E) 2,467 4.5 -24.6°
